TimeEST,TemperatureF,Dew PointF,Humidity,Sea Level PressureIn,VisibilityMPH,Wind Direction,Wind SpeedMPH,Gust SpeedMPH,PrecipitationIn,Events,Conditions,WindDirDegrees,DateUTC
12:52 AM,26.1,18.0,71,29.82,10.0,Calm,Calm,-,N/A,,Clear,0,2013-03-05 05:52:00
2:52 AM,25.0,18.0,75,29.85,10.0,Variable,5.8,-,N/A,,Clear,0,2013-03-05 07:52:00
3:52 AM,25.0,18.0,75,29.87,10.0,Calm,Calm,-,N/A,,Clear,0,2013-03-05 08:52:00
4:52 AM,25.0,18.0,75,29.90,10.0,Calm,Calm,-,N/A,,Clear,0,2013-03-05 09:52:00
5:52 AM,23.0,18.0,81,29.92,10.0,Variable,5.8,-,N/A,,Mostly Cloudy,0,2013-03-05 10:52:00
6:52 AM,27.0,19.0,72,29.94,10.0,Variable,4.6,-,N/A,,Overcast,0,2013-03-05 11:52:00
7:52 AM,28.0,19.9,72,29.96,10.0,NNW,9.2,-,N/A,,Overcast,340,2013-03-05 12:52:00
8:05 AM,28.4,19.4,69,29.91,10.0,North,8.1,-,N/A,,Overcast,360,2013-03-05 13:05:00
8:52 AM,30.0,21.0,69,29.98,10.0,Variable,3.5,-,N/A,,Overcast,0,2013-03-05 13:52:00
9:15 AM,30.2,21.2,69,29.93,10.0,Calm,Calm,-,N/A,,Overcast,0,2013-03-05 14:15:00
9:52 AM,33.1,21.9,64,29.98,10.0,Variable,6.9,-,N/A,,Overcast,0,2013-03-05 14:52:00
10:52 AM,34.0,21.9,61,29.98,10.0,North,6.9,-,N/A,,Overcast,350,2013-03-05 15:52:00
11:52 AM,35.1,23.0,61,29.98,10.0,Variable,4.6,-,N/A,,Overcast,0,2013-03-05 16:52:00
12:01 PM,37.4,24.8,60,29.92,10.0,Variable,5.8,-,N/A,,Overcast,0,2013-03-05 17:01:00
12:52 PM,39.9,24.1,53,29.97,10.0,NNE,9.2,-,N/A,,Overcast,30,2013-03-05 17:52:00
1:52 PM,39.9,23.0,51,29.99,10.0,Variable,4.6,-,N/A,,Overcast,0,2013-03-05 18:52:00
2:52 PM,39.9,21.9,49,30.00,10.0,Variable,5.8,-,N/A,,Overcast,0,2013-03-05 19:52:00
3:52 PM,41.0,23.0,49,30.01,10.0,Variable,3.5,-,N/A,,Overcast,0,2013-03-05 20:52:00
4:52 PM,39.0,23.0,53,30.04,10.0,Calm,Calm,-,N/A,,Overcast,0,2013-03-05 21:52:00
5:52 PM,36.0,25.0,64,30.05,10.0,Calm,Calm,-,N/A,,Overcast,0,2013-03-05 22:52:00
6:52 PM,30.9,25.0,79,30.06,10.0,Calm,Calm,-,N/A,,Scattered Clouds,0,2013-03-05 23:52:00
7:52 PM,30.0,25.0,82,30.07,10.0,Calm,Calm,-,N/A,,Partly Cloudy,0,2013-03-06 00:52:00
8:52 PM,28.9,26.1,89,30.07,10.0,Calm,Calm,-,N/A,,Mostly Cloudy,0,2013-03-06 01:52:00
9:52 PM,30.9,27.0,85,30.07,10.0,Calm,Calm,-,N/A,,Overcast,0,2013-03-06 02:52:00
10:52 PM,28.9,27.0,92,30.09,10.0,Calm,Calm,-,N/A,,Overcast,0,2013-03-06 03:52:00
11:00 PM,28.4,26.6,93,30.04,10.0,Calm,Calm,-,N/A,,Overcast,0,2013-03-06 04:00:00
11:52 PM,30.9,28.0,89,30.08,8.0,Calm,Calm,-,0.00,,Overcast,0,2013-03-06 04:52:00